Kissimmee, FL

1:28 PM EST on November 21, 2019 (GMT -0500)
Kissimmee Municipal

Weather History for KISM - August, 2019

Change the Weather History Date:

Monday, August 5, 2019

  Actual Average Record
Temperature  
Mean Temperature 81 °F -  
Max Temperature 90 °F 91 °F 97 °F (1970)
Min Temperature 73 °F 72 °F 68 °F (1975)
Cooling Degree Days 16    
Growing Degree Days 31 (Base 50)    
Moisture  
Dew Point 75 °F    
Average Humidity 85    
Maximum Humidity 97    
Minimum Humidity 62    
Precipitation  
Precipitation 0.00 in - - ()
Sea Level Pressure  
Sea Level Pressure 30.02 in    
Wind  
Wind Speed 6 mph (SSW)    
Max Wind Speed 21 mph    
Max Gust Speed -    
Visibility 10 miles    
Events Rain , Thunderstorm    
Averages and records for this station are not official NWS values.
T = Trace of Precipitation, MM = Missing Value Source: NWS Daily Summary

Daily Weather History Graph

Daily Weather History Graph

Search for Another Location

Airport or City:

Astronomy

Aug. 05, 2019 Rise Set
Actual Time 6:49 AM EDT 8:13 PM EDT
Civil Twilight 6:24 AM EDT 8:38 PM EDT
Nautical Twilight 5:54 AM EDT 9:08 PM EDT
Astronomical Twilight 5:23 AM EDT 9:39 PM EDT
Moon 11:40 AM EDT (8/5) 11:51 PM EDT (8/5)
Length of Visible Light 14h 13m
Length of Day
13h 23m
Waxing Crescent, 28% of the Moon is Illuminated
Aug 5
Waxing Crescent
Aug 7
First Quarter
Aug 15
Full
Aug 23
Last Quarter
Aug 30
New

Hourly Weather History & Observations

Time (EDT) Temp. Heat Index Dew Point Humidity Pressure Visibility Wind Dir Wind Speed Gust Speed Precip Events Conditions
12:56 AM 78.1 °F - 75.9 °F 93% 30.01 in 10.0 mi SW 3.5 mph - N/A   Clear
1:56 AM 78.1 °F - 75.9 °F 93% 30.01 in 10.0 mi SSW 3.5 mph - N/A   Clear
2:56 AM 77.0 °F - 75.9 °F 96% 30.00 in 10.0 mi SSW 3.5 mph - N/A   Clear
3:56 AM 77.0 °F - 75.9 °F 96% 30.00 in 10.0 mi South 4.6 mph - N/A   Clear
4:56 AM 77.0 °F - 75.0 °F 94% 29.99 in 10.0 mi Calm Calm - N/A   Clear
5:56 AM 75.9 °F - 75.0 °F 97% 30.01 in 10.0 mi SSW 5.8 mph - N/A   Clear
6:56 AM 75.9 °F - 73.9 °F 94% 30.01 in 10.0 mi SW 4.6 mph - N/A   Clear
7:56 AM 78.1 °F - 75.0 °F 90% 30.04 in 10.0 mi SSW 5.8 mph - N/A   Clear
8:56 AM 80.1 °F 85.4 °F 75.9 °F 87% 30.05 in 10.0 mi SW 5.8 mph - N/A   Clear
9:56 AM 81.0 °F 87.9 °F 77.0 °F 88% 30.05 in 10.0 mi SW 5.8 mph - N/A   Clear
10:56 AM 84.0 °F 93.7 °F 77.0 °F 79% 30.04 in 10.0 mi SW 5.8 mph - N/A   Scattered Clouds
11:36 AM 84.2 °F 92.3 °F 75.2 °F 74% 30.04 in 10.0 mi South 4.6 mph - N/A   Mostly Cloudy
11:56 AM 84.9 °F 94.1 °F 75.9 °F 74% 30.04 in 10.0 mi SW 8.1 mph - N/A   Partly Cloudy
12:31 PM 86.0 °F 95.1 °F 75.2 °F 70% 30.03 in 10.0 mi SSW 6.9 mph - N/A Thunderstorm Clear
12:46 PM 86.0 °F 95.1 °F 75.2 °F 70% 30.03 in 10.0 mi SSW 9.2 mph - N/A   Clear
12:56 PM 86.0 °F 96.0 °F 75.9 °F 72% 30.04 in 10.0 mi SW 8.1 mph - N/A   Mostly Cloudy
1:56 PM 87.1 °F 98.8 °F 77.0 °F 72% 30.02 in 10.0 mi SSW 8.1 mph - N/A   Mostly Cloudy
2:06 PM 87.8 °F 97.6 °F 75.2 °F 66% 30.01 in 10.0 mi SSW 6.9 mph - N/A   Scattered Clouds
2:56 PM 88.0 °F 98.5 °F 75.9 °F 67% 30.01 in 10.0 mi SSW 5.8 mph - N/A   Partly Cloudy
3:56 PM 89.1 °F 99.1 °F 75.0 °F 63% 30.00 in 10.0 mi SW 6.9 mph - N/A   Scattered Clouds
4:13 PM 89.6 °F 99.8 °F 75.2 °F 62% 29.99 in 10.0 mi SW 8.1 mph - N/A Thunderstorm Scattered Clouds
4:54 PM 80.6 °F 84.6 °F 71.6 °F 74% 30.00 in 7.0 mi NNW 20.7 mph - N/A Thunderstorm Thunderstorm
4:56 PM 80.1 °F 83.8 °F 72.0 °F 76% 30.01 in 7.0 mi NNW 17.3 mph - N/A Thunderstorm Mostly Cloudy
5:15 PM 73.4 °F - 71.6 °F 94% 30.00 in 5.0 mi WSW 17.3 mph - N/A Rain , Thunderstorm Thunderstorms and Rain
5:56 PM 75.0 °F - 72.0 °F 90% 30.02 in 10.0 mi SSE 4.6 mph - N/A Rain , Thunderstorm Light Thunderstorms and Rain
6:13 PM 75.2 °F - 73.4 °F 94% 30.03 in 10.0 mi SSE 4.6 mph - N/A   Mostly Cloudy
6:56 PM 75.0 °F - 73.9 °F 96% 30.04 in 10.0 mi South 9.2 mph - N/A Rain , Thunderstorm Light Rain
7:13 PM 75.2 °F - 73.4 °F 94% 30.04 in 10.0 mi South 8.1 mph - N/A   Mostly Cloudy
7:56 PM 75.9 °F - 73.9 °F 94% 30.05 in 10.0 mi SE 4.6 mph - N/A   Clear
8:56 PM 75.0 °F - 73.0 °F 94% 30.04 in 10.0 mi Calm Calm - N/A   Clear
9:56 PM 75.0 °F - 73.9 °F 96% 30.03 in 10.0 mi Calm Calm - N/A   Clear
10:56 PM 75.0 °F - 73.9 °F 96% 30.04 in 10.0 mi Calm Calm - N/A   Clear
11:56 PM 75.0 °F - 73.9 °F 96% 30.04 in 10.0 mi South 4.6 mph - N/A   Clear